TimeEST,TemperatureF,Dew PointF,Humidity,Sea Level PressureIn,VisibilityMPH,Wind Direction,Wind SpeedMPH,Gust SpeedMPH,PrecipitationIn,Events,Conditions,WindDirDegrees,DateUTC
12:00 AM,68.0,68.0,100,29.93,10.0,WNW,10.4,-,N/A,,Mostly Cloudy,300,2011-11-29 05:00:00
12:53 AM,66.0,64.0,93,29.92,10.0,NW,9.2,-,N/A,,Mostly Cloudy,310,2011-11-29 05:53:00
1:53 AM,64.9,63.0,93,29.93,10.0,NW,13.8,-,N/A,,Mostly Cloudy,320,2011-11-29 06:53:00
2:17 AM,64.4,62.6,94,29.93,10.0,NW,15.0,-,N/A,,Mostly Cloudy,310,2011-11-29 07:17:00
2:53 AM,64.0,62.1,93,29.94,10.0,NW,12.7,-,N/A,,Overcast,310,2011-11-29 07:53:00
3:22 AM,64.4,60.8,88,29.94,10.0,NW,13.8,-,N/A,,Overcast,320,2011-11-29 08:22:00
3:53 AM,64.0,61.0,90,29.95,10.0,NW,9.2,-,N/A,,Overcast,310,2011-11-29 08:53:00
4:51 AM,64.4,60.8,88,29.95,10.0,NW,10.4,-,N/A,,Overcast,310,2011-11-29 09:51:00
4:53 AM,64.0,60.1,87,29.95,10.0,NW,9.2,-,N/A,,Overcast,310,2011-11-29 09:53:00
5:53 AM,64.9,60.1,84,29.96,10.0,NNW,8.1,-,N/A,,Overcast,330,2011-11-29 10:53:00
6:53 AM,64.9,59.0,81,29.97,10.0,North,3.5,-,N/A,,Overcast,350,2011-11-29 11:53:00
7:53 AM,66.0,59.0,78,29.99,10.0,Calm,Calm,-,N/A,,Overcast,0,2011-11-29 12:53:00
8:53 AM,68.0,59.0,73,30.00,10.0,Calm,Calm,-,N/A,,Overcast,0,2011-11-29 13:53:00
9:53 AM,69.1,59.0,70,30.01,10.0,NW,4.6,-,N/A,,Overcast,320,2011-11-29 14:53:00
10:53 AM,70.0,59.0,68,30.00,10.0,West,9.2,-,N/A,,Mostly Cloudy,260,2011-11-29 15:53:00
11:53 AM,72.0,60.1,66,29.98,10.0,West,8.1,-,N/A,,Mostly Cloudy,260,2011-11-29 16:53:00
12:53 PM,73.9,59.0,59,29.95,10.0,WNW,11.5,-,N/A,,Mostly Cloudy,290,2011-11-29 17:53:00
1:53 PM,75.0,61.0,62,29.93,10.0,NNW,13.8,-,N/A,,Scattered Clouds,330,2011-11-29 18:53:00
2:53 PM,75.0,60.1,60,29.93,10.0,WNW,11.5,19.6,N/A,,Scattered Clouds,290,2011-11-29 19:53:00
3:53 PM,73.9,60.1,62,29.93,10.0,WNW,12.7,-,N/A,,Scattered Clouds,300,2011-11-29 20:53:00
4:53 PM,71.1,60.1,68,29.94,10.0,WNW,10.4,-,N/A,,Partly Cloudy,300,2011-11-29 21:53:00
5:53 PM,66.9,60.1,79,29.95,10.0,WNW,8.1,-,N/A,,Partly Cloudy,300,2011-11-29 22:53:00
6:53 PM,64.9,59.0,81,29.97,10.0,WNW,8.1,-,N/A,,Partly Cloudy,300,2011-11-29 23:53:00
7:53 PM,63.0,55.9,78,29.99,10.0,NW,6.9,-,N/A,,Partly Cloudy,310,2011-11-30 00:53:00
8:53 PM,63.0,54.0,72,30.01,10.0,NW,9.2,-,N/A,,Partly Cloudy,320,2011-11-30 01:53:00
9:53 PM,62.1,53.1,72,30.01,10.0,NNW,6.9,-,N/A,,Clear,330,2011-11-30 02:53:00
10:53 PM,60.1,53.1,78,30.02,10.0,NNW,8.1,-,N/A,,Clear,330,2011-11-30 03:53:00
11:53 PM,57.0,52.0,83,30.02,10.0,NW,5.8,-,N/A,,Clear,310,2011-11-30 04:53:00